Location: Zagreb
(45.8000°N, 16.0000°E)
Time: 00:46:17
(UTC+01:00)

Transit 2A Rocket - Pass Details

Date: 09 October 2020
Orbit: 586 x 916 km, 66.7° (Epoch: 28 October)

Event Time Altitude Azimuth Distance (km) Brightness Sun altitude
Rises 16:00:44 0° 230° (SW) 3,531 10.0 21.6°
Reaches altitude 10° 16:03:20 10° 236° (SW) 2,602 10.0 21.3°
Maximum altitude 16:09:15 49° 310° (NW) 1,164 6.4 20.4°
Drops below altitude 10° 16:15:04 10° 25° (NNE) 2,558 7.3 19.6°
Sets 16:17:37 0° 31° (NNE) 3,466 7.9 19.2°
